Flag for Ireland Weather past 2 weeks in Waterford, Ireland

Now
59 °F

Partly sunny.


Feels Like: 55 °F
Forecast: 54 / 64 °F
Wind: 23 mph from Southeast

Location: Cork Airport

Current Time: Aug 27, 2014 at 12:48:48 PM

Latest Report: Aug 27, 2014 at 12:30 PM


Visibility: 5 mi

Pressure: 29.62 "Hg

Humidity: 100%

Dew point: 59 °F

Location of WaterfordLocation

Historic Weather in Waterford — Graph

°F

Waterford temperature yesterday

Maximum temperature yesterday: 66 °F (at 2:30 PM)
Minimum temperature yesterday: 57 °F (at 1:30 AM)
Average temperature yesterday: 60 °F

Past Weeks' High & Low Weather Summary

 TemperatureHumidityPressure
High66 °F (Aug 25, 1:30 PM)100% (Aug 24, 8:30 AM)30.27 "Hg (Aug 24, 8:30 AM)
Low45 °F (Aug 23, 4:30 AM)45% (Aug 22, 5:30 PM)29.36 "Hg (Aug 25, 8:00 PM)
Average57 °F79%29.93 "Hg
* Reported Aug 12 11:00 AM — Aug 27 11:30 AM, Waterford, Weather by CustomWeather, © 2014

Note: Actual official high and low records may vary slightly from our data, if they occured in-between our weather recording intervals... More about our weather records

Advertising

Waterford weather history for previous 24 hours

 ConditionsComfort  
Time TempWeatherWind HumidityBarometerVisibility
11:30 AM
Aug 27
59 °FDrizzle. Partly sunny.24 mph100%29.68 "Hg4 mi
11:00 AM59 °FDrizzle. Partly sunny.23 mph100%29.68 "HgN/A
10:30 AM59 °FDrizzle. Broken clouds.23 mph100%29.71 "Hg4 mi
10:00 AM59 °FPartly sunny.21 mph94%29.71 "HgN/A
9:30 AM59 °FPartly sunny.22 mph100%29.71 "HgN/A
9:00 AM59 °FPartly sunny.20 mph100%29.74 "HgN/A
8:30 AM59 °FDrizzle. Partly sunny.18 mph100%29.74 "HgN/A
8:00 AM59 °FPartly sunny.17 mph100%29.77 "HgN/A
7:30 AM59 °FPassing clouds.18 mph100%29.77 "HgN/A
7:00 AM59 °FPassing clouds.17 mph100%29.77 "HgN/A
6:30 AM59 °FPassing clouds.17 mph100%29.77 "HgN/A
6:00 AM59 °FPassing clouds.17 mph94%29.77 "HgN/A
5:30 AM59 °FPartly cloudy.17 mph94%29.77 "HgN/A
5:00 AM59 °FPartly cloudy.17 mph94%29.77 "HgN/A
4:30 AM59 °FPassing clouds.21 mph94%29.80 "HgN/A
4:00 AM59 °FPassing clouds.16 mph94%29.80 "HgN/A
3:30 AM59 °FPassing clouds.15 mph94%29.80 "HgN/A
3:00 AM59 °FPassing clouds.15 mph94%29.83 "HgN/A
2:30 AM59 °FPassing clouds.13 mph94%29.83 "HgN/A
2:00 AM59 °FPartly cloudy.10 mph94%29.83 "HgN/A
1:00 AM59 °FPassing clouds.12 mph88%29.86 "HgN/A
12:30 AM59 °FPassing clouds.12 mph88%29.86 "HgN/A
12:00 AM59 °FPassing clouds.12 mph88%29.86 "HgN/A
11:30 PM
Aug 26
59 °FPassing clouds.14 mph88%29.86 "HgN/A
11:00 PM59 °FPassing clouds.10 mph88%29.86 "HgN/A
10:30 PM59 °FPassing clouds.14 mph88%29.86 "HgN/A
10:00 PM59 °FPassing clouds.14 mph88%29.86 "HgN/A
9:30 PM59 °FPartly sunny.15 mph88%29.86 "HgN/A
9:00 PM59 °FBroken clouds.14 mph88%29.83 "HgN/A
8:30 PM61 °FPartly sunny.13 mph83%29.83 "HgN/A
8:00 PM61 °FPartly sunny.16 mph83%29.83 "HgN/A
7:30 PM61 °FPassing clouds.17 mph83%29.80 "HgN/A
7:00 PM63 °FScattered clouds.16 mph77%29.80 "HgN/A
6:30 PM63 °FScattered clouds.17 mph83%29.80 "HgN/A
6:00 PM63 °FPartly sunny.17 mph83%29.80 "HgN/A
5:30 PM63 °FPartly sunny.17 mph83%29.80 "HgN/A
5:00 PM64 °FPartly sunny.16 mph78%29.77 "HgN/A
4:30 PM64 °FPartly sunny.17 mph78%29.77 "HgN/A
4:00 PM64 °FPartly sunny.17 mph83%29.77 "HgN/A
3:30 PM64 °FPartly sunny.16 mph78%29.77 "HgN/A
3:00 PM66 °FPartly sunny.15 mph78%29.74 "HgN/A
2:30 PM66 °FPartly sunny.9 mph78%29.74 "HgN/A
2:00 PM64 °FPartly sunny.10 mph83%29.74 "HgN/A
1:30 PM64 °FPartly sunny.10 mph83%29.71 "HgN/A
1:00 PM64 °FPartly sunny.12 mph83%29.71 "HgN/A
12:30 PM63 °FPartly sunny.13 mph88%29.71 "HgN/A
12:00 PM63 °FPartly sunny.10 mph88%29.68 "HgN/A
Weather by CustomWeather, © 2014

See weather overviewHow to use our weather pages